[[{"header":{"parameterUnit":"m.s-1","parameterCategory":1,"la1":30.2991,"la2":30.254,"lo1":-89.0895,"lo2":-89.0444,"dy":0.0017,"dx":0.0017,"nx":28,"ny":28,"refTime":"2023-09-25T03:00:00:Z","depth":0,"parameterNumber":2,"parameterNumberName":"U-component_of_WINDS"},"data":[0,0,0,0,0,0,0,0,0,0,0,0,0,0,0,0,0,0,0,0,0,0,0,0,0,0,0,0,0,0,0,0,0,0,0,0,0,0,0,0,0,0,0,0,0,0,0,0,0,0,0,0,0,0,0,0,0,0,1.9334,1.9334,0,1.9338,1.9338,1.9338,1.9345,1.9346,1.9346,1.9346,1.9349,1.9349,1.9348,0,0,0,0,0,0,0,0,0,0,0,0,0,1.9334,1.9334,1.9334,1.9334,1.9334,1.9338,1.9338,1.9338,1.9345,1.9346,1.9346,1.9346,1.9349,1.9349,1.9348,0,0,0,0,0,0,0,0,0,0,0,0,0,1.9336,1.9334,1.9334,1.9339,1.9339,1.9338,1.9338,1.9338,1.9345,1.9346,1.9346,1.9346,1.9349,1.9349,1.9348,1.9343,0,0,1.9348,1.9348,0,0,0,0,0,0,0,0,1.9335,1.9336,1.9338,1.9338,1.9339,1.9341,1.9339,1.934,1.9345,1.9343,1.9346,1.9346,1.9346,1.9346,1.9346,1.9343,1.9343,1.9348,1.9348,1.9348,1.9348,0,0,0,0,0,0,0,1.9335,1.9335,1.9336,1.9338,1.9338,1.934,1.9341,1.9339,1.9343,1.9343,1.9344,1.9344,1.9346,1.9346,1.9346,1.9343,1.9348,1.9348,1.9348,1.9348,1.9336,1.9336,0,0,0,0,0,0,1.9335,1.9335,1.9336,1.9336,1.9338,1.934,1.9341,1.934,1.9343,1.9344,1.9344,1.9344,1.9346,1.9346,1.9346,1.934,1.9348,1.9348,1.9348,1.9337,1.9336,1.9336,0,0,0,0,0,0,1.9335,1.9335,1.9335,1.9336,1.9336,1.934,1.9339,1.934,1.934,1.9344,1.9344,1.9343,1.9347,1.9347,1.9344,1.9341,1.9348,1.9348,1.9337,1.9337,1.9336,1.9328,0,0,0,0,0,0,1.9335,1.9335,1.9333,1.9336,1.9336,1.9333,1.9339,1.934,1.934,1.9341,1.9343,1.9344,1.9347,1.9344,1.9344,1.9341,1.9348,1.9337,1.9337,1.9336,1.9329,1.9328,1.9327,0,0,0,0,0,1.9335,1.933,1.9332,1.9332,1.9334,1.9333,1.9333,1.9337,1.934,1.9338,1.934,1.9344,1.9341,1.9344,1.9344,1.934,1.9337,1.9337,1.9336,1.9329,1.9328,1.9327,0,0,0,0,0,0,1.9326,1.933,1.9333,1.9329,1.9331,1.9334,1.9332,1.9335,1.9335,1.9336,1.934,1.9341,1.9337,1.9339,1.9341,1.9335,1.934,1.9339,1.9335,1.9333,1.9332,1.9332,1.9348,0,0,0,0,0,1.9324,1.9323,1.9327,1.9323,1.9324,1.9328,1.9327,1.933,1.9332,1.9332,1.9334,1.9335,1.9335,1.9334,1.9334,1.9329,1.933,1.9327,1.9326,1.9325,1.9324,1.9322,1.9321,1.9334,1.9334,1.9334,0,0,1.9319,1.9321,1.9321,1.9322,1.9323,1.9322,1.9328,1.9326,1.9326,1.9332,1.9329,1.9331,1.9332,1.9329,1.9327,1.933,1.9321,1.9324,1.9323,1.9323,1.9321,1.932,1.9319,1.9334,1.9334,1.9334,0,0,1.931,1.9312,1.9309,1.931,1.9312,1.9315,1.9314,1.9317,1.9318,1.9316,1.9321,1.932,1.9319,1.932,1.932,1.9312,1.9315,1.9312,1.9306,1.9304,1.9303,1.9302,1.9299,1.9298,1.9311,1.9311,1.9311,0,1.9304,1.9302,1.9307,1.9305,1.9306,1.9312,1.9309,1.931,1.9311,1.9311,1.9314,1.9313,1.9315,1.9312,1.931,1.931,1.9309,1.9311,1.9303,1.9302,1.9301,1.9298,1.9297,1.9311,1.9311,1.9311,1.9311,0,1.9295,1.9294,1.9291,1.9293,1.9293,1.9291,1.9295,1.9295,1.9298,1.93,1.9298,1.93,1.93,1.93,1.9302,1.9297,1.9298,1.9302,1.9306,1.9299,1.9297,1.9295,1.931,1.931,1.931,1.931,0,0,1.928,1.9285,1.9284,1.9285,1.9287,1.9287,1.9285,1.9286,1.9285,1.9286,1.9285,1.9284,1.9287,1.9288,1.9291,1.9289,1.9282,1.9292,1.9293,1.929,1.9276,1.9273,1.9272,1.9285,1.9284,1.9284,1.9276,0,1.9271,1.9268,1.9273,1.9269,1.9268,1.9274,1.9272,1.9274,1.9276,1.9276,1.9278,1.9278,1.9282,1.9282,1.9281,1.9283,1.9279,1.9284,1.9283,1.9283,1.9282,1.9271,1.9268,1.926,1.9275,1.9275,1.9275,0,1.9261,1.9262,1.9258,1.9261,1.9261,1.9259,1.9261,1.926,1.9262,1.9264,1.9265,1.9268,1.9267,1.9271,1.9269,1.9272,1.9272,1.9273,1.9273,1.9273,1.9278,1.927,1.9258,1.9256,1.9273,1.9273,1.9273,0,1.925,1.925,1.9248,1.9249,1.9253,1.9252,1.9253,1.9256,1.9256,1.9257,1.9257,1.9257,1.9257,1.9258,1.9262,1.9265,1.9259,1.9264,1.926,1.926,1.9258,1.9258,1.9245,1.9259,1.9259,1.9259,1.9259,0,1.924,1.9237,1.9244,1.9242,1.924,1.9245,1.9242,1.9244,1.9246,1.9245,1.925,1.9249,1.9254,1.9254,1.9257,1.9254,1.9254,1.9256,1.9256,1.9255,1.9255,1.9255,1.9255,1.9259,1.9259,1.9259,1.9259,0,1.9228,1.9232,1.923,1.9234,1.9235,1.9233,1.9236,1.9235,1.9238,1.9236,1.9236,1.9241,1.924,1.9244,1.9245,1.9247,1.9243,1.9245,1.9242,1.9243,1.9239,1.9239,1.9225,1.9223,1.9238,1.9238,1.9238,0,1.9221,1.9219,1.9223,1.9223,1.9224,1.9224,1.9224,1.9229,1.9229,1.9231,1.923,1.923,1.9231,1.923,1.9233,1.9233,1.9235,1.923,1.9235,1.9234,1.9235,1.9235,1.9234,1.9229,1.9229,1.9229,1.9229,0,1.9208,1.921,1.9211,1.9212,1.9212,1.9213,1.9214,1.9214,1.9219,1.9219,1.9219,1.9219,1.922,1.922,1.9221,1.9223,1.9226,1.9227,1.9226,1.9224,1.9223,1.9224,1.9239,1.9227,1.9227,1.9227,1.9228,1.9228,1.9198,1.9197,1.92,1.92,1.9201,1.9203,1.9202,1.9205,1.9205,1.9206,1.9209,1.9208,1.921,1.9212,1.9213,1.9213,1.9215,1.9214,1.9213,1.9213,1.9212,1.9223,1.9213,1.9213,1.9213,1.9213,1.9213,0,1.9186,1.9188,1.9188,1.919,1.919,1.9194,1.9196,1.9195,1.9195,1.9197,1.9197,1.9197,1.9197,1.92,1.9201,1.92,1.9202,1.92,1.92,1.92,1.921,1.9211,1.9199,1.9199,1.9199,1.9199,1.9199,1.9199,1.9179,1.9177,1.918,1.9179,1.9181,1.918,1.9181,1.9182,1.9184,1.9183,1.9184,1.9186,1.9188,1.9189,1.9189,1.919,1.919,1.9188,1.9189,1.9198,1.9199,1.9201,1.9201,1.9188,1.9188,1.9179,1.9179,1.9179]},{"header":{"parameterUnit":"m.s-1","parameterCategory":1,"la1":30.2991,"la2":30.254,"lo1":-89.0895,"lo2":-89.0444,"dy":0.0017,"dx":0.0017,"nx":28,"ny":28,"refTime":"2023-09-25T03:00:00:Z","depth":0,"parameterNumber":3,"parameterNumberName":"V-component_of_WINDS"},"data":[0,0,0,0,0,0,0,0,0,0,0,0,0,0,0,0,0,0,0,0,0,0,0,0,0,0,0,0,0,0,0,0,0,0,0,0,0,0,0,0,0,0,0,0,0,0,0,0,0,0,0,0,0,0,0,0,0,0,0.4515,0.4516,0,0.4535,0.4536,0.4536,0.4553,0.4553,0.4554,0.4554,0.4573,0.4573,0.4574,0,0,0,0,0,0,0,0,0,0,0,0,0,0.4491,0.4491,0.4515,0.4516,0.4516,0.4535,0.4536,0.4536,0.4553,0.4553,0.4554,0.4554,0.4573,0.4573,0.4574,0,0,0,0,0,0,0,0,0,0,0,0,0,0.4505,0.4491,0.4515,0.4527,0.4528,0.4535,0.4536,0.4536,0.4553,0.4553,0.4554,0.4554,0.4573,0.4573,0.4574,0.4571,0,0,0.4575,0.4576,0,0,0,0,0,0,0,0,0.4504,0.4506,0.4525,0.4526,0.4527,0.4542,0.4534,0.4548,0.4553,0.4544,0.4554,0.4554,0.4563,0.4564,0.4567,0.4572,0.4573,0.4575,0.4576,0.4576,0.4576,0,0,0,0,0,0,0,0.4503,0.4505,0.4523,0.4525,0.4527,0.4531,0.4533,0.4537,0.4551,0.4544,0.4546,0.4548,0.4563,0.4566,0.4568,0.4573,0.4575,0.4576,0.4576,0.4576,0.4576,0.4575,0,0,0,0,0,0,0.4501,0.4504,0.4523,0.4524,0.4516,0.4531,0.4533,0.4537,0.4551,0.4554,0.4548,0.4549,0.4565,0.4567,0.4568,0.4565,0.4576,0.4576,0.4577,0.4576,0.4576,0.4575,0,0,0,0,0,0,0.45,0.4502,0.4522,0.4514,0.4517,0.4531,0.4535,0.4537,0.4541,0.4554,0.4556,0.4548,0.4566,0.4568,0.457,0.4566,0.4577,0.4577,0.4576,0.4576,0.4575,0.456,0,0,0,0,0,0,0.4499,0.4502,0.4501,0.4514,0.4518,0.4524,0.4535,0.4538,0.4541,0.4543,0.4555,0.4557,0.4566,0.4569,0.4571,0.4567,0.4577,0.4577,0.4576,0.4576,0.456,0.4559,0.4557,0,0,0,0,0,0.4498,0.4496,0.4501,0.4503,0.4517,0.4523,0.4525,0.4536,0.4541,0.454,0.4549,0.4557,0.4566,0.4569,0.4571,0.4568,0.4577,0.4576,0.4576,0.4561,0.4559,0.4557,0,0,0,0,0,0,0.4481,0.4498,0.4504,0.4505,0.4513,0.4526,0.4526,0.4533,0.4539,0.454,0.4553,0.4556,0.4556,0.4562,0.4565,0.4565,0.4573,0.4572,0.4561,0.4559,0.4558,0.4556,0.4578,0,0,0,0,0,0.4478,0.4482,0.4496,0.4496,0.45,0.4512,0.4515,0.4523,0.4531,0.4534,0.4543,0.455,0.4554,0.4557,0.4562,0.4561,0.4564,0.456,0.4558,0.4557,0.4556,0.4555,0.4554,0.4573,0.4573,0.4573,0,0,0.4471,0.448,0.4482,0.4493,0.45,0.4503,0.4514,0.4518,0.452,0.4534,0.4537,0.4544,0.4553,0.4553,0.4554,0.4558,0.4551,0.4556,0.4554,0.4555,0.4554,0.4553,0.4551,0.4572,0.4573,0.4573,0,0,0.4459,0.4467,0.4468,0.4474,0.4484,0.4493,0.4493,0.4505,0.451,0.4513,0.4523,0.4526,0.4534,0.454,0.4544,0.4534,0.4542,0.4536,0.4526,0.4526,0.4524,0.4523,0.4519,0.4517,0.4535,0.4535,0.4535,0,0.4449,0.4455,0.4467,0.447,0.4474,0.4487,0.4488,0.4493,0.4504,0.4507,0.4511,0.4521,0.4528,0.453,0.4528,0.4531,0.4531,0.4534,0.4524,0.4522,0.4521,0.4518,0.4516,0.4534,0.4534,0.4534,0.4534,0,0.4442,0.4446,0.4445,0.4456,0.446,0.4461,0.4473,0.4476,0.4483,0.449,0.4493,0.4502,0.4509,0.451,0.4517,0.4513,0.4515,0.4521,0.4529,0.4518,0.4515,0.4514,0.4533,0.4533,0.4533,0.4534,0,0,0.442,0.4437,0.4437,0.4442,0.4454,0.4457,0.4459,0.4466,0.4467,0.4475,0.4476,0.4482,0.4488,0.4493,0.45,0.45,0.4491,0.4506,0.4507,0.4503,0.4486,0.4481,0.4479,0.4496,0.4496,0.4496,0.4485,0,0.441,0.4415,0.4426,0.4427,0.443,0.4443,0.4444,0.4451,0.4458,0.4462,0.447,0.4474,0.4482,0.4484,0.4484,0.4492,0.4488,0.4493,0.4497,0.4497,0.4494,0.4478,0.4472,0.4462,0.4484,0.4484,0.4484,0,0.44,0.4406,0.4408,0.4419,0.4421,0.4422,0.4429,0.4433,0.4441,0.4446,0.4451,0.4459,0.4461,0.4469,0.4472,0.4475,0.4477,0.4481,0.4481,0.4481,0.449,0.4477,0.4459,0.4457,0.4482,0.4482,0.4482,0,0.4383,0.4393,0.4395,0.4398,0.4412,0.4412,0.4418,0.4426,0.443,0.4436,0.4438,0.4444,0.4447,0.4451,0.4461,0.4465,0.4462,0.4471,0.4466,0.4466,0.4464,0.4464,0.4446,0.4466,0.4466,0.4466,0.4466,0,0.4371,0.4372,0.4387,0.4389,0.4389,0.4401,0.4401,0.4408,0.4415,0.4417,0.4428,0.443,0.4443,0.4446,0.4453,0.4454,0.4455,0.4459,0.4461,0.4458,0.4457,0.4459,0.446,0.4466,0.4466,0.4466,0.4466,0,0.4353,0.4364,0.4367,0.4379,0.4382,0.4382,0.4393,0.4394,0.4401,0.4404,0.4405,0.4417,0.4421,0.4431,0.4438,0.4443,0.4441,0.4445,0.4439,0.444,0.4435,0.4435,0.4416,0.4414,0.4436,0.4436,0.4436,0,0.4344,0.4345,0.4358,0.436,0.4365,0.4369,0.4373,0.4384,0.4387,0.4396,0.4396,0.4402,0.4406,0.4412,0.4421,0.4426,0.443,0.4423,0.443,0.4427,0.4429,0.4429,0.4428,0.4421,0.4421,0.442,0.442,0,0.4328,0.4333,0.4338,0.4345,0.4349,0.4354,0.436,0.4362,0.4375,0.4377,0.4382,0.4386,0.4392,0.4397,0.4403,0.4409,0.4416,0.4418,0.4417,0.4414,0.441,0.4411,0.4434,0.4418,0.4418,0.4419,0.4419,0.4419,0.4314,0.4315,0.4324,0.4329,0.4335,0.434,0.4342,0.435,0.4354,0.4361,0.4367,0.4371,0.4378,0.4388,0.4392,0.4395,0.4399,0.4398,0.4397,0.4397,0.4395,0.441,0.4396,0.4396,0.4396,0.4396,0.4396,0,0.4298,0.4304,0.4308,0.4317,0.432,0.4328,0.4335,0.4338,0.4341,0.4347,0.4352,0.4357,0.4361,0.437,0.4375,0.4376,0.4379,0.4376,0.4376,0.4377,0.4391,0.4392,0.4373,0.4373,0.4373,0.4373,0.4373,0.4373,0.4289,0.4291,0.4297,0.4302,0.4308,0.4312,0.4316,0.432,0.4326,0.4331,0.4335,0.4341,0.4348,0.4354,0.4358,0.436,0.4362,0.4358,0.4361,0.4374,0.4376,0.4378,0.4379,0.4358,0.4358,0.4347,0.4347,0.4347]}]]